Regional Weather Roundup
Issued by NWS

Home | Current Version | Previous Version | Graphics & Text | Print | Product List | Glossary On
Versions: 1 2 3 4 5 6 7 8 9 10 11 12 13 14 15 16 17 18 19 20 21 22 23 24 25 26 27 28 29 30 31 32 33 34 35 36 37 38 39 40 41 42 43 44 45 46 47 48 49 50
000
ASUS43 KMKX 251021
RWRWI

WISCONSIN REGIONAL WEATHER ROUNDUP
NATIONAL WEATHER SERVICE MILWAUKEE/SULLIVAN WI
500 AM CDT SAT OCT 25 2014

NOTE: "FAIR" INDICATES FEW OR NO CLOUDS BELOW 12,000 FEET WITH NO
SIGNIFICANT WEATHER AND/OR OBSTRUCTIONS TO VISIBILITY.

WIZ001-002-006>008-014>016-023>028-251100-
NORTHWEST WISCONSIN

CITY           SKY/WX    TMP DP  RH WIND       PRES   REMARKS
SUPERIOR ARPT  CLEAR     45  35  68 SW8       29.84S
ASHLAND        CLEAR     49  37  63 SW10      29.82R
HAYWARD        CLEAR     53  35  50 W3        29.87R
SIREN          CLEAR     49  36  61 W7        29.92R
CUMBERLAND     CLEAR     48  36  61 W10       29.90R
RICE LAKE      CLEAR     47  38  72 W5        29.91S
CHETEK         CLEAR     50  39  66 W6        29.90R
LADYSMITH      CLEAR     51  40  65 W10       29.88S
EAU CLAIRE     CLEAR     45  41  86 SW5       29.90R
MENOMONIE      CLEAR     52  39  61 W7        29.92R
NEW RICHMOND   CLEAR     51  37  59 W9        29.94S
OSCEOLA        CLEAR     53  37  56 W10       29.97R
$$

WIZ003>005-009-010-017-018-251100-
NORTH CENTRAL WISCONSIN

CITY           SKY/WX    TMP DP  RH WIND       PRES   REMARKS
MANITOWISH WTR CLEAR     47  43  85 W7        29.80S
ARBOR VITAE    CLEAR     52  45  76 W8        29.81R
WOODRUFF       CLEAR     52  45  76 W8        29.81R
RHINELANDER    CLEAR     48  44  86 W9        29.82R
EAGLE RIVER    CLEAR     49  42  74 W8        29.79S
LAND O LAKES   CLEAR     49  43  79 W5        29.79S
PHILLIPS       CLEAR     47  42  82 CALM      29.84S
TOMAHAWK       CLEAR     47  43  85 W6        29.84R
MEDFORD        CLEAR     48  45  87 W8        29.86R
MERRILL        CLEAR     49  47  92 W6        29.83S
$$

WIZ029-030-035-036-043>047-251100-
CENTRAL WISCONSIN

CITY           SKY/WX    TMP DP  RH WIND       PRES   REMARKS
WAUSAU         CLEAR     52  49  89 W9        29.83R
MOSINEE        CLEAR     50  50 100 W8        29.86R FOG
MARSHFIELD     CLEAR     50  47  89 W9        29.87R
STEVENS POINT  CLEAR     51  49  95 W6        29.86R FOG
WAUPACA        CLEAR     55  54  95 W5        29.85R FOG
WAUTOMA        CLOUDY    55  53  93 W8        29.87R FOG
WISC RAPIDS    CLEAR     52  50  93 W7        29.88R
CAMP DOUGLAS   NOT AVBL
$$

WIZ011>013-019>022-031-037>040-048>050-251100-
NORTHEAST WISCONSIN

CITY           SKY/WX    TMP DP  RH WIND       PRES   REMARKS
ANTIGO         CLEAR     50  48  94 W9        29.81S
SHAWANO        CLEAR     55  53  90 SW6       29.81S FOG
OCONTO         CLEAR     53  53 100 W12       29.78R
STURGEON BAY   CLEAR     54  50  87 W12       29.78R
GREEN BAY      PTCLDY    55  53  93 W9        29.81R FOG
MANITOWOC      MOCLDY    56  54  93 W10       29.81R
APPLETON       PTCLDY    52  52 100 W12       29.83S FOG
CLINTONVILLE   CLEAR     54  52  94 W6        29.82R
OSHKOSH        PTCLDY    55  53  93 VRB7      29.84S FOG
$$

WIZ032>034-041-042-053>061-251100-
SOUTHWEST WISCONSIN

CITY           SKY/WX    TMP DP  RH WIND       PRES   REMARKS
LA CROSSE      FOG       48  46  93 CALM      29.92S VSB 1/4
SPARTA         FOG       45  45  99 CALM      29.92S VSB 1/2
VIROQUA        CLEAR     52  52 100 W5        29.93S
BOSCOBEL       FOG       56  55  97 SW3       29.93R VSB 1/4
PRAIRIE DU CHI CLEAR     54  51  89 W5        29.94R
PLATTEVILLE      N/A     54  53  98 CALM      29.94R VSB 1/4
$$

WIZ056-057-062-063-064-067-068-251100-
SOUTH CENTRAL WISCONSIN

CITY           SKY/WX    TMP DP  RH WIND       PRES   REMARKS
REEDSBURG      CLEAR     54  52  92 W5        29.90R
BARABOO/DELLS  CLEAR     55  51  89 W7        29.89R FOG
LONE ROCK      PTCLDY    59  55  87 W7        29.91R FOG
MINERAL POINT  FOG       55  55 100 W7        29.92S VSB 1/4
MADISON        CLEAR     57  54  89 VRB7      29.88S FOG
MIDDLETON      CLEAR     56  55  98 W9        29.90R
WATERTOWN      CLEAR     51  51 100 SW5       29.87S FOG
MONROE         MOCLDY    55  54  94 W13       29.90S FOG
JANESVILLE     CLEAR     55  54  94 W5        29.90S FOG
$$

WIZ051-052-058>065-066-070>072-251100-
SOUTHEAST WISCONSIN

CITY           SKY/WX    TMP DP  RH WIND       PRES   REMARKS
MILWAUKEE      PTCLDY    57  53  86 W13       29.86F
WAUKESHA       CLOUDY    54  52  94 W9        29.89R FOG
MILWAUKEE/TIMM PTCLDY    55  52  88 W9        29.86S FOG
RACINE         PTCLDY    56  53  90 W12       29.87F
BURLINGTON     CLEAR     53  52  97 W5        29.89R FOG
KENOSHA        PTCLDY    56  54  93 W10       29.88S FOG
FOND DU LAC    PTCLDY    56  53  90 W9        29.85R
SHEBOYGAN      CLOUDY    55  52  89 W9        29.84R
WEST BEND      CLOUDY    54  52  94 W8        29.85S FOG
JUNEAU         FOG       51  51  99 SW8       29.88R VSB 1/2
$$

LSZ147-162-251100-
LAKE SUPERIOR

STATION/POSITION TIME  TEMP    WIND        PRES    WAVE
                       AIR SEA DIR/SP/G            HT/PER
                 (UTC) (F)     (DEG/KT/KT) (MB)    (FT/S)
W MID LAKE BUOY  0950   52 46  250/ 21/ 25 1005.3F   3/ 5
DEVILS ISLAND    1000   54     260/ 23/ 27 1008.0R
PORT WING        0940   56     250/ 12/ 18 1009.8R
SAXON HARBOR     0900   57     210/  7/ 10 1008.8F
$$

LMZ867-665-643>646-251100-
LAKE MICHIGAN

STATION/POSITION TIME  TEMP    WIND        PRES    WAVE
                       AIR SEA DIR/SP/G            HT/PER
                 (UTC) (F)     (DEG/KT/KT) (MB)    (FT/S)
CHAMBERS ISLAND  0900   53     200/  6/ 11 1007.8S
N MID LAKE BUOY  0950   53 51  240/ 16/ 17 1006.4F   3/ 6
NORTHPORT PIER   0900   55     250/  6/ 14 1006.8F
SISTER BAY       0913          250/ 16/ 18   N/A
ALGOMA LAKESHORE 0841          280/  7/ 10   N/A
KEWAUNEE LAKESHO 1000   56     280/  9/ 11 1007.8F
SHEBOYGAN LAKESH 1000   56 51  280/ 15/ 17 1010.3R
PORT WASHINGTON  0900   56     290/  7/ 14 1010.8
ATWATER BUOY     1000   57     260/ 14/ 17 1011.7F
MILWAUKEE LAKESH 1000   58     280/ 11/ 14   N/A
S MID LAKE BUOY  0950   56 54  250/ 14/ 16 1011.3S   1/ 3
KENOSHA   LAKESH 1000   58     270/ 13/ 16 1011.5F
$$

TC  - TEMPERATURE IN CELSIUS
VSB - VISIBILITY IN STATUTE MILES
WCI - WIND CHILL INDEX
HX  - HEAT INDEX




USA.gov is the U.S. government's official web portal to all federal, state and local government web resources and services.